Time,TemperatureF,DewpointF,PressureIn,WindDirection,WindDirectionDegrees,WindSpeedMPH,WindSpeedGustMPH,Humidity,HourlyPrecipIn,Conditions,Clouds,dailyrainin,SoftwareType,DateUTC
2013-04-07 00:04:00,45.6,44.0,29.77,SSW,202,0.0,0.0,93,0.06,,,0.01,Rainwise IP-100,2013-04-07 07:04:00,
2013-04-07 00:09:00,45.5,44.0,29.77,SSW,202,0.0,0.0,94,0.06,,,0.01,Rainwise IP-100,2013-04-07 07:09:00,
2013-04-07 00:14:00,45.4,43.0,29.76,SSW,202,0.0,0.0,94,0.00,,,0.01,Rainwise IP-100,2013-04-07 07:14:00,
2013-04-07 00:19:00,45.3,43.0,29.75,SSW,202,0.0,0.0,94,0.00,,,0.01,Rainwise IP-100,2013-04-07 07:19:00,
2013-04-07 00:24:00,45.2,43.0,29.75,SSW,202,0.0,0.0,94,0.00,,,0.01,Rainwise IP-100,2013-04-07 07:24:00,
2013-04-07 00:29:00,45.1,43.0,29.75,SSW,202,0.0,0.0,94,0.00,,,0.01,Rainwise IP-100,2013-04-07 07:29:00,
2013-04-07 00:34:00,45.0,43.0,29.74,SSW,202,0.0,0.0,94,0.00,,,0.01,Rainwise IP-100,2013-04-07 07:34:00,
2013-04-07 00:39:00,44.8,44.0,29.73,SSW,202,0.0,0.0,95,0.00,,,0.01,Rainwise IP-100,2013-04-07 07:39:00,
2013-04-07 00:44:00,44.8,44.0,29.72,SSW,202,0.0,0.0,95,0.00,,,0.01,Rainwise IP-100,2013-04-07 07:44:00,
2013-04-07 00:49:00,44.7,44.0,29.72,SSW,202,0.0,0.0,95,0.00,,,0.01,Rainwise IP-100,2013-04-07 07:49:00,
2013-04-07 00:54:00,44.7,44.0,29.72,SSW,202,0.0,0.0,95,0.00,,,0.01,Rainwise IP-100,2013-04-07 07:54:00,
2013-04-07 00:59:00,44.7,44.0,29.70,SSW,202,0.0,0.0,96,0.00,,,0.01,Rainwise IP-100,2013-04-07 07:59:00,
2013-04-07 01:05:00,44.7,44.0,29.69,SSW,202,0.0,0.0,96,0.00,,,0.01,Rainwise IP-100,2013-04-07 08:05:00,
2013-04-07 01:10:00,44.7,44.0,29.69,SSW,202,0.0,0.0,96,0.00,,,0.01,Rainwise IP-100,2013-04-07 08:10:00,
2013-04-07 01:15:00,44.8,44.0,29.69,SSW,202,0.0,0.0,96,0.00,,,0.01,Rainwise IP-100,2013-04-07 08:15:00,
2013-04-07 01:20:00,44.8,44.0,29.68,SSW,202,0.0,0.0,96,0.00,,,0.01,Rainwise IP-100,2013-04-07 08:20:00,
2013-04-07 01:25:00,44.8,44.0,29.67,SSW,202,0.0,0.0,95,0.00,,,0.01,Rainwise IP-100,2013-04-07 08:25:00,
2013-04-07 01:30:00,44.8,44.0,29.67,SSW,202,0.0,0.0,95,0.00,,,0.01,Rainwise IP-100,2013-04-07 08:30:00,
2013-04-07 01:35:00,44.7,44.0,29.67,SSW,202,0.0,0.0,96,0.00,,,0.01,Rainwise IP-100,2013-04-07 08:35:00,
2013-04-07 01:40:00,44.6,44.0,29.67,SSW,202,0.0,0.0,96,0.00,,,0.01,Rainwise IP-100,2013-04-07 08:40:00,
2013-04-07 01:45:00,44.6,44.0,29.66,SSW,202,0.0,0.0,96,0.00,,,0.01,Rainwise IP-100,2013-04-07 08:45:00,
2013-04-07 01:50:00,44.6,44.0,29.66,SSW,202,0.0,0.0,96,0.06,,,0.02,Rainwise IP-100,2013-04-07 08:50:00,
2013-04-07 01:55:00,44.6,44.0,29.65,SSW,202,0.0,0.0,96,0.06,,,0.02,Rainwise IP-100,2013-04-07 08:55:00,
2013-04-07 02:00:00,44.5,44.0,29.65,SSW,202,0.0,0.0,96,0.00,,,0.02,Rainwise IP-100,2013-04-07 09:00:00,
2013-04-07 02:05:00,44.5,44.0,29.65,SSW,202,0.0,0.0,96,0.00,,,0.02,Rainwise IP-100,2013-04-07 09:05:00,
2013-04-07 02:10:00,44.5,44.0,29.64,SSW,202,0.0,0.0,96,0.06,,,0.03,Rainwise IP-100,2013-04-07 09:10:00,
2013-04-07 02:15:00,44.5,44.0,29.63,SSW,202,0.0,0.0,96,0.06,,,0.03,Rainwise IP-100,2013-04-07 09:15:00,
2013-04-07 02:20:00,44.4,43.0,29.63,SSW,202,0.0,0.0,97,0.06,,,0.04,Rainwise IP-100,2013-04-07 09:20:00,
2013-04-07 02:25:00,44.4,43.0,29.63,SSW,202,0.0,0.0,97,0.06,,,0.05,Rainwise IP-100,2013-04-07 09:25:00,
2013-04-07 02:30:00,44.3,43.0,29.62,SSW,202,0.0,0.0,97,0.06,,,0.05,Rainwise IP-100,2013-04-07 09:30:00,
2013-04-07 02:35:00,44.2,43.0,29.62,SSW,202,0.0,0.0,97,0.06,,,0.05,Rainwise IP-100,2013-04-07 09:35:00,
2013-04-07 02:40:00,44.1,43.0,29.61,SSW,202,0.0,0.0,97,0.06,,,0.06,Rainwise IP-100,2013-04-07 09:40:00,
2013-04-07 02:45:00,44.0,43.0,29.61,SSW,202,0.0,0.0,97,0.06,,,0.06,Rainwise IP-100,2013-04-07 09:45:00,
2013-04-07 02:50:00,44.0,43.0,29.60,SSW,202,0.0,0.0,97,0.00,,,0.06,Rainwise IP-100,2013-04-07 09:50:00,
2013-04-07 02:55:00,43.9,43.0,29.60,SSW,202,0.0,0.0,97,0.06,,,0.07,Rainwise IP-100,2013-04-07 09:55:00,
2013-04-07 03:00:00,43.9,43.0,29.60,SSW,202,0.0,0.0,98,0.12,,,0.08,Rainwise IP-100,2013-04-07 10:00:00,
2013-04-07 03:05:00,43.8,43.0,29.59,SSW,202,0.0,0.0,98,0.06,,,0.08,Rainwise IP-100,2013-04-07 10:05:00,
2013-04-07 03:10:00,43.7,43.0,29.58,SSW,202,0.0,0.0,98,0.00,,,0.08,Rainwise IP-100,2013-04-07 10:10:00,
2013-04-07 03:15:00,43.7,43.0,29.58,SSW,202,0.0,0.0,98,0.06,,,0.09,Rainwise IP-100,2013-04-07 10:15:00,
2013-04-07 03:20:00,43.7,43.0,29.57,SSW,202,0.0,0.0,98,0.12,,,0.10,Rainwise IP-100,2013-04-07 10:20:00,
2013-04-07 03:25:00,43.7,44.0,29.57,SSW,202,0.0,0.0,99,0.06,,,0.10,Rainwise IP-100,2013-04-07 10:25:00,
2013-04-07 03:30:00,43.7,44.0,29.57,SSW,202,0.0,0.0,99,0.00,,,0.10,Rainwise IP-100,2013-04-07 10:30:00,
2013-04-07 03:35:00,43.7,44.0,29.57,SSW,202,0.0,0.0,99,0.00,,,0.10,Rainwise IP-100,2013-04-07 10:35:00,
2013-04-07 03:40:00,43.7,44.0,29.57,SSW,202,0.0,0.0,99,0.00,,,0.10,Rainwise IP-100,2013-04-07 10:40:00,
2013-04-07 03:45:00,43.7,44.0,29.56,SSW,202,0.0,0.0,99,0.06,,,0.11,Rainwise IP-100,2013-04-07 10:45:00,
2013-04-07 03:50:00,43.7,44.0,29.56,SSW,202,0.0,0.0,99,0.06,,,0.11,Rainwise IP-100,2013-04-07 10:50:00,
2013-04-07 03:55:00,43.6,44.0,29.56,SSW,202,0.0,0.0,99,0.00,,,0.11,Rainwise IP-100,2013-04-07 10:55:00,
2013-04-07 04:00:00,43.6,44.0,29.55,SSW,202,0.0,0.0,99,0.06,,,0.12,Rainwise IP-100,2013-04-07 11:00:00,
2013-04-07 04:05:00,43.5,44.0,29.55,SSW,202,0.0,0.0,99,0.06,,,0.12,Rainwise IP-100,2013-04-07 11:05:00,
2013-04-07 04:10:00,43.4,43.0,29.55,SSW,202,0.0,0.0,99,0.00,,,0.12,Rainwise IP-100,2013-04-07 11:10:00,
2013-04-07 04:15:00,43.4,43.0,29.55,SSW,202,0.0,0.0,99,0.00,,,0.12,Rainwise IP-100,2013-04-07 11:15:00,
2013-04-07 04:20:00,43.4,43.0,29.54,SSW,202,0.0,0.0,99,0.06,,,0.13,Rainwise IP-100,2013-04-07 11:20:00,
2013-04-07 04:25:00,43.3,43.0,29.53,SSW,202,0.0,0.0,99,0.06,,,0.13,Rainwise IP-100,2013-04-07 11:25:00,
2013-04-07 04:30:00,43.2,43.0,29.53,SSW,202,0.0,0.0,99,0.00,,,0.13,Rainwise IP-100,2013-04-07 11:30:00,
2013-04-07 04:35:00,43.2,43.0,29.53,SSW,202,0.0,0.0,99,0.06,,,0.14,Rainwise IP-100,2013-04-07 11:35:00,
2013-04-07 04:40:00,43.2,43.0,29.53,SSW,202,0.0,0.0,99,0.06,,,0.14,Rainwise IP-100,2013-04-07 11:40:00,
2013-04-07 04:45:00,43.1,43.0,29.53,SSW,202,0.0,0.0,99,0.00,,,0.14,Rainwise IP-100,2013-04-07 11:45:00,
2013-04-07 04:50:00,43.1,43.0,29.52,SSW,202,0.0,0.0,99,0.00,,,0.14,Rainwise IP-100,2013-04-07 11:50:00,
2013-04-07 04:55:00,43.1,43.0,29.52,SSW,202,0.0,0.0,99,0.00,,,0.14,Rainwise IP-100,2013-04-07 11:55:00,
2013-04-07 05:00:00,42.9,43.0,29.52,SSW,202,0.0,0.0,99,0.06,,,0.15,Rainwise IP-100,2013-04-07 12:00:00,
2013-04-07 05:05:00,42.9,43.0,29.52,SSW,202,0.0,0.0,99,0.06,,,0.15,Rainwise IP-100,2013-04-07 12:05:00,
2013-04-07 05:10:00,42.7,43.0,29.52,WNW,292,0.0,1.6,99,0.00,,,0.15,Rainwise IP-100,2013-04-07 12:10:00,
2013-04-07 05:15:00,42.6,43.0,29.52,WNW,292,0.0,0.0,99,0.06,,,0.16,Rainwise IP-100,2013-04-07 12:15:00,
2013-04-07 05:20:00,42.5,43.0,29.52,NE,45,0.0,2.1,99,0.06,,,0.16,Rainwise IP-100,2013-04-07 12:20:00,
2013-04-07 05:25:00,42.2,42.0,29.51,NE,45,0.0,0.0,99,0.00,,,0.16,Rainwise IP-100,2013-04-07 12:25:00,
2013-04-07 05:30:00,42.1,42.0,29.51,NE,45,0.0,0.0,99,0.06,,,0.17,Rainwise IP-100,2013-04-07 12:30:00,
2013-04-07 05:35:00,42.0,42.0,29.51,NW,315,0.0,0.0,99,0.06,,,0.17,Rainwise IP-100,2013-04-07 12:35:00,
2013-04-07 05:40:00,41.9,42.0,29.51,WNW,292,0.0,3.0,99,0.00,,,0.17,Rainwise IP-100,2013-04-07 12:40:00,
2013-04-07 05:45:00,41.7,42.0,29.51,WNW,292,0.0,1.9,99,0.06,,,0.18,Rainwise IP-100,2013-04-07 12:45:00,
2013-04-07 05:50:00,41.5,41.0,29.51,North,0,0.0,2.1,98,0.06,,,0.18,Rainwise IP-100,2013-04-07 12:50:00,
2013-04-07 05:55:00,41.4,40.0,29.50,North,0,0.0,0.0,98,0.00,,,0.18,Rainwise IP-100,2013-04-07 12:55:00,
2013-04-07 06:00:00,41.2,40.0,29.51,North,0,0.0,0.0,98,0.06,,,0.19,Rainwise IP-100,2013-04-07 13:00:00,
2013-04-07 06:05:00,41.1,40.0,29.51,North,0,0.0,0.0,98,0.06,,,0.19,Rainwise IP-100,2013-04-07 13:05:00,
2013-04-07 06:10:00,41.1,41.0,29.51,North,0,0.0,0.0,99,0.06,,,0.20,Rainwise IP-100,2013-04-07 13:10:00,
2013-04-07 06:15:00,41.0,41.0,29.51,NW,315,0.0,1.2,99,0.06,,,0.20,Rainwise IP-100,2013-04-07 13:15:00,
2013-04-07 06:20:00,41.0,41.0,29.52,NW,315,0.0,0.0,99,0.00,,,0.20,Rainwise IP-100,2013-04-07 13:20:00,
2013-04-07 06:25:00,40.9,41.0,29.51,North,0,0.0,0.0,99,0.00,,,0.20,Rainwise IP-100,2013-04-07 13:25:00,
2013-04-07 06:30:00,40.8,41.0,29.52,North,0,0.0,0.0,99,0.00,,,0.20,Rainwise IP-100,2013-04-07 13:30:00,
2013-04-07 06:35:00,40.7,41.0,29.52,North,0,0.0,0.0,99,0.06,,,0.21,Rainwise IP-100,2013-04-07 13:35:00,
2013-04-07 06:40:00,40.5,41.0,29.52,North,0,0.0,0.0,99,0.06,,,0.21,Rainwise IP-100,2013-04-07 13:40:00,
2013-04-07 06:45:00,40.4,40.0,29.52,North,0,0.0,0.0,99,0.00,,,0.21,Rainwise IP-100,2013-04-07 13:45:00,
2013-04-07 06:50:00,40.4,40.0,29.53,North,0,0.0,0.0,99,0.06,,,0.22,Rainwise IP-100,2013-04-07 13:50:00,
2013-04-07 06:55:00,40.3,40.0,29.52,North,0,0.0,0.0,99,0.06,,,0.22,Rainwise IP-100,2013-04-07 13:55:00,
2013-04-07 07:00:00,40.3,40.0,29.53,North,0,0.0,0.0,99,0.00,,,0.22,Rainwise IP-100,2013-04-07 14:00:00,
2013-04-07 07:05:00,40.4,40.0,29.53,North,0,0.0,0.0,99,0.00,,,0.22,Rainwise IP-100,2013-04-07 14:05:00,
2013-04-07 07:10:00,40.4,40.0,29.53,North,0,0.0,0.0,99,0.00,,,0.22,Rainwise IP-100,2013-04-07 14:10:00,
2013-04-07 07:15:00,40.3,40.0,29.53,North,0,0.0,0.0,99,0.00,,,0.22,Rainwise IP-100,2013-04-07 14:15:00,
2013-04-07 07:20:00,40.3,40.0,29.53,North,0,0.0,0.0,99,0.06,,,0.23,Rainwise IP-100,2013-04-07 14:20:00,
2013-04-07 07:25:00,40.4,40.0,29.54,North,0,0.0,0.0,100,0.06,,,0.23,Rainwise IP-100,2013-04-07 14:25:00,
2013-04-07 07:30:00,40.4,40.0,29.54,East,90,0.0,0.0,100,0.00,,,0.23,Rainwise IP-100,2013-04-07 14:30:00,
2013-04-07 07:35:00,40.5,41.0,29.55,East,90,0.0,0.0,100,0.00,,,0.23,Rainwise IP-100,2013-04-07 14:35:00,
2013-04-07 07:40:00,40.6,41.0,29.55,East,90,0.0,0.0,100,0.00,,,0.23,Rainwise IP-100,2013-04-07 14:40:00,
2013-04-07 07:45:00,40.6,41.0,29.56,East,90,0.0,0.0,100,0.06,,,0.24,Rainwise IP-100,2013-04-07 14:45:00,
2013-04-07 07:50:00,40.8,41.0,29.56,East,90,0.0,0.0,100,0.06,,,0.24,Rainwise IP-100,2013-04-07 14:50:00,
2013-04-07 07:55:00,41.0,41.0,29.57,East,90,0.0,0.0,100,0.00,,,0.24,Rainwise IP-100,2013-04-07 14:55:00,
2013-04-07 08:00:00,41.3,41.0,29.57,ENE,67,0.0,0.0,100,0.00,,,0.24,Rainwise IP-100,2013-04-07 15:00:00,
2013-04-07 08:05:00,41.5,42.0,29.57,North,0,0.0,1.2,100,0.00,,,0.24,Rainwise IP-100,2013-04-07 15:05:00,
2013-04-07 08:10:00,41.6,42.0,29.58,North,0,0.0,0.0,100,0.00,,,0.24,Rainwise IP-100,2013-04-07 15:10:00,
2013-04-07 08:15:00,41.6,42.0,29.58,North,0,0.0,0.0,100,0.00,,,0.24,Rainwise IP-100,2013-04-07 15:15:00,
2013-04-07 08:20:00,41.6,42.0,29.58,NE,45,0.0,1.9,100,0.00,,,0.24,Rainwise IP-100,2013-04-07 15:20:00,
2013-04-07 08:25:00,41.6,42.0,29.59,NE,45,0.0,0.0,100,0.00,,,0.24,Rainwise IP-100,2013-04-07 15:25:00,
2013-04-07 08:30:00,41.6,42.0,29.59,NE,45,0.0,0.0,100,0.00,,,0.25,Rainwise IP-100,2013-04-07 15:30:00,
2013-04-07 08:35:00,41.7,42.0,29.60,NE,45,0.0,0.0,100,0.06,,,0.25,Rainwise IP-100,2013-04-07 15:35:00,
2013-04-07 08:40:00,41.8,42.0,29.60,NE,45,0.0,0.0,100,0.06,,,0.25,Rainwise IP-100,2013-04-07 15:40:00,
2013-04-07 08:45:00,41.8,42.0,29.61,NE,45,0.0,0.0,100,0.00,,,0.25,Rainwise IP-100,2013-04-07 15:45:00,
2013-04-07 08:50:00,41.9,42.0,29.61,SE,135,0.0,0.0,100,0.06,,,0.26,Rainwise IP-100,2013-04-07 15:50:00,
2013-04-07 08:55:00,41.9,42.0,29.62,SSE,157,0.0,0.0,99,0.06,,,0.26,Rainwise IP-100,2013-04-07 15:55:00,
2013-04-07 09:00:00,41.8,42.0,29.62,SSE,157,0.0,0.0,99,0.00,,,0.26,Rainwise IP-100,2013-04-07 16:00:00,
2013-04-07 09:05:00,41.8,42.0,29.62,SSE,157,0.0,0.0,99,0.00,,,0.26,Rainwise IP-100,2013-04-07 16:05:00,
2013-04-07 09:10:00,41.9,42.0,29.63,SSE,157,0.0,0.0,99,0.06,,,0.27,Rainwise IP-100,2013-04-07 16:10:00,
2013-04-07 09:16:00,41.9,42.0,29.63,SSE,157,0.0,0.0,99,0.06,,,0.27,Rainwise IP-100,2013-04-07 16:16:00,
2013-04-07 09:21:00,41.9,42.0,29.63,SSE,157,0.0,0.0,99,0.06,,,0.28,Rainwise IP-100,2013-04-07 16:21:00,
2013-04-07 09:26:00,42.0,42.0,29.64,SSE,157,0.0,0.0,99,0.06,,,0.28,Rainwise IP-100,2013-04-07 16:26:00,
2013-04-07 09:31:00,42.0,42.0,29.64,SSE,157,0.0,0.0,100,0.06,,,0.29,Rainwise IP-100,2013-04-07 16:31:00,
2013-04-07 09:36:00,42.1,42.0,29.65,SSE,157,0.0,0.0,100,0.06,,,0.29,Rainwise IP-100,2013-04-07 16:36:00,
2013-04-07 09:41:00,42.2,42.0,29.64,SSE,157,0.0,0.0,100,0.00,,,0.29,Rainwise IP-100,2013-04-07 16:41:00,
2013-04-07 09:46:00,42.3,42.0,29.65,SSE,157,0.0,0.0,100,0.06,,,0.30,Rainwise IP-100,2013-04-07 16:46:00,
2013-04-07 09:51:00,42.4,42.0,29.65,SSW,202,0.0,0.0,99,0.06,,,0.30,Rainwise IP-100,2013-04-07 16:51:00,
2013-04-07 09:56:00,42.5,43.0,29.65,SSW,202,0.0,0.0,99,0.00,,,0.30,Rainwise IP-100,2013-04-07 16:56:00,
2013-04-07 10:01:00,42.6,43.0,29.65,SSW,202,0.0,1.6,99,0.00,,,0.30,Rainwise IP-100,2013-04-07 17:01:00,
2013-04-07 10:06:00,42.7,43.0,29.66,SSW,202,1.2,3.3,99,0.06,,,0.31,Rainwise IP-100,2013-04-07 17:06:00,
2013-04-07 10:11:00,42.8,43.0,29.65,SW,225,0.0,3.5,99,0.06,,,0.31,Rainwise IP-100,2013-04-07 17:11:00,
2013-04-07 10:16:00,42.8,43.0,29.66,SSW,202,1.9,2.6,99,0.00,,,0.31,Rainwise IP-100,2013-04-07 17:16:00,
2013-04-07 10:21:00,42.7,43.0,29.66,South,180,1.2,4.9,99,0.06,,,0.32,Rainwise IP-100,2013-04-07 17:21:00,
2013-04-07 10:26:00,42.6,43.0,29.67,SSW,202,1.6,3.3,99,0.12,,,0.33,Rainwise IP-100,2013-04-07 17:26:00,
2013-04-07 10:31:00,42.6,43.0,29.67,SW,225,0.0,2.6,99,0.12,,,0.34,Rainwise IP-100,2013-04-07 17:31:00,
2013-04-07 10:36:00,42.5,43.0,29.67,SW,225,0.0,3.3,99,0.06,,,0.34,Rainwise IP-100,2013-04-07 17:36:00,
2013-04-07 10:41:00,42.6,43.0,29.68,SSW,202,1.9,3.0,99,0.00,,,0.34,Rainwise IP-100,2013-04-07 17:41:00,
2013-04-07 10:46:00,42.6,43.0,29.68,SW,225,1.2,3.0,99,0.00,,,0.34,Rainwise IP-100,2013-04-07 17:46:00,
2013-04-07 10:51:00,42.7,43.0,29.69,SSW,202,2.3,3.7,99,0.00,,,0.34,Rainwise IP-100,2013-04-07 17:51:00,
2013-04-07 10:56:00,42.8,43.0,29.69,SSW,202,1.4,3.0,99,0.06,,,0.35,Rainwise IP-100,2013-04-07 17:56:00,
2013-04-07 11:02:00,42.8,43.0,29.69,South,180,0.0,4.4,99,0.06,,,0.35,Rainwise IP-100,2013-04-07 18:02:00,
2013-04-07 11:06:00,42.8,43.0,29.69,South,180,2.8,3.0,99,0.00,,,0.35,Rainwise IP-100,2013-04-07 18:06:00,
2013-04-07 11:11:00,42.9,42.0,29.69,SW,225,1.6,5.6,98,0.06,,,0.36,Rainwise IP-100,2013-04-07 18:11:00,
2013-04-07 11:17:00,42.8,42.0,29.69,SSW,202,0.0,2.6,98,0.06,,,0.36,Rainwise IP-100,2013-04-07 18:17:00,
2013-04-07 11:22:00,42.7,42.0,29.70,SSW,202,0.0,3.0,98,0.06,,,0.37,Rainwise IP-100,2013-04-07 18:22:00,
2013-04-07 11:27:00,42.7,42.0,29.70,SW,225,1.4,3.0,98,0.12,,,0.38,Rainwise IP-100,2013-04-07 18:27:00,
2013-04-07 11:32:00,42.6,42.0,29.71,South,180,1.2,3.7,97,0.06,,,0.38,Rainwise IP-100,2013-04-07 18:32:00,
2013-04-07 11:37:00,42.6,42.0,29.71,SE,135,0.0,2.8,97,0.00,,,0.38,Rainwise IP-100,2013-04-07 18:37:00,
2013-04-07 11:42:00,42.6,42.0,29.71,SSW,202,1.9,1.9,97,0.00,,,0.38,Rainwise IP-100,2013-04-07 18:42:00,
2013-04-07 11:47:00,42.5,42.0,29.71,SSW,202,1.6,3.3,97,0.00,,,0.38,Rainwise IP-100,2013-04-07 18:47:00,
2013-04-07 11:52:00,42.5,42.0,29.71,SW,225,0.0,3.3,97,0.00,,,0.38,Rainwise IP-100,2013-04-07 18:52:00,
2013-04-07 11:57:00,42.5,42.0,29.71,SSW,202,0.0,2.3,96,0.06,,,0.39,Rainwise IP-100,2013-04-07 18:57:00,
2013-04-07 12:02:00,42.5,42.0,29.72,SSW,202,0.0,0.0,97,0.06,,,0.39,Rainwise IP-100,2013-04-07 19:02:00,
2013-04-07 12:07:00,42.6,42.0,29.71,WSW,247,0.0,3.0,97,0.00,,,0.39,Rainwise IP-100,2013-04-07 19:07:00,
2013-04-07 12:12:00,42.7,42.0,29.71,SSW,202,0.0,3.0,97,0.00,,,0.39,Rainwise IP-100,2013-04-07 19:12:00,
2013-04-07 12:17:00,42.9,42.0,29.71,SSW,202,0.0,2.3,97,0.00,,,0.39,Rainwise IP-100,2013-04-07 19:17:00,
2013-04-07 12:22:00,43.0,42.0,29.72,SSW,202,0.0,3.3,97,0.00,,,0.39,Rainwise IP-100,2013-04-07 19:22:00,
2013-04-07 12:27:00,43.3,42.0,29.72,SSW,202,0.0,0.0,97,0.00,,,0.39,Rainwise IP-100,2013-04-07 19:27:00,
2013-04-07 12:32:00,43.6,43.0,29.72,SSW,202,0.0,4.0,97,0.00,,,0.39,Rainwise IP-100,2013-04-07 19:32:00,
2013-04-07 12:37:00,43.8,43.0,29.72,SSW,202,0.0,0.0,97,0.00,,,0.39,Rainwise IP-100,2013-04-07 19:37:00,
2013-04-07 12:42:00,43.9,43.0,29.72,SW,225,0.0,2.1,96,0.00,,,0.39,Rainwise IP-100,2013-04-07 19:42:00,
2013-04-07 12:47:00,43.8,43.0,29.72,SW,225,0.0,1.6,96,0.06,,,0.40,Rainwise IP-100,2013-04-07 19:47:00,
2013-04-07 12:52:00,43.7,43.0,29.72,SW,225,0.0,0.0,96,0.06,,,0.40,Rainwise IP-100,2013-04-07 19:52:00,
2013-04-07 12:57:00,43.7,43.0,29.73,SW,225,0.0,0.0,97,0.00,,,0.40,Rainwise IP-100,2013-04-07 19:57:00,
2013-04-07 13:02:00,43.7,43.0,29.73,SW,225,0.0,1.2,97,0.00,,,0.40,Rainwise IP-100,2013-04-07 20:02:00,
2013-04-07 13:07:00,43.7,43.0,29.73,SSW,202,1.6,2.3,96,0.00,,,0.40,Rainwise IP-100,2013-04-07 20:07:00,
2013-04-07 13:12:00,43.7,43.0,29.74,SSW,202,0.0,1.6,96,0.00,,,0.40,Rainwise IP-100,2013-04-07 20:12:00,
2013-04-07 13:17:00,43.7,43.0,29.74,SSW,202,0.0,1.2,96,0.00,,,0.40,Rainwise IP-100,2013-04-07 20:17:00,
2013-04-07 13:22:00,43.7,43.0,29.74,SSW,202,0.0,1.6,97,0.00,,,0.40,Rainwise IP-100,2013-04-07 20:22:00,
2013-04-07 13:27:00,43.7,43.0,29.74,SSW,202,0.0,0.0,97,0.06,,,0.41,Rainwise IP-100,2013-04-07 20:27:00,
2013-04-07 13:32:00,43.8,43.0,29.74,SSW,202,0.0,0.0,97,0.06,,,0.41,Rainwise IP-100,2013-04-07 20:32:00,
2013-04-07 13:37:00,44.0,43.0,29.74,SW,225,0.0,1.4,97,0.00,,,0.41,Rainwise IP-100,2013-04-07 20:37:00,
2013-04-07 13:42:00,44.1,43.0,29.74,SW,225,0.0,0.0,98,0.00,,,0.41,Rainwise IP-100,2013-04-07 20:42:00,
2013-04-07 13:47:00,44.2,43.0,29.74,SW,225,0.0,0.0,98,0.00,,,0.41,Rainwise IP-100,2013-04-07 20:47:00,
2013-04-07 13:52:00,44.3,43.0,29.74,SW,225,0.0,0.0,98,0.00,,,0.41,Rainwise IP-100,2013-04-07 20:52:00,
2013-04-07 13:57:00,44.4,43.0,29.74,SW,225,0.0,0.0,98,0.06,,,0.42,Rainwise IP-100,2013-04-07 20:57:00,
2013-04-07 14:02:00,44.6,44.0,29.75,SW,225,0.0,0.0,98,0.06,,,0.42,Rainwise IP-100,2013-04-07 21:02:00,
2013-04-07 14:07:00,44.7,44.0,29.74,SW,225,0.0,0.0,98,0.00,,,0.42,Rainwise IP-100,2013-04-07 21:07:00,
2013-04-07 14:12:00,44.9,44.0,29.75,SW,225,0.0,0.0,98,0.00,,,0.42,Rainwise IP-100,2013-04-07 21:12:00,
2013-04-07 14:17:00,45.2,44.0,29.75,SW,225,0.0,0.0,98,0.00,,,0.42,Rainwise IP-100,2013-04-07 21:17:00,
2013-04-07 14:22:00,45.4,44.0,29.75,SW,225,0.0,0.0,98,0.00,,,0.42,Rainwise IP-100,2013-04-07 21:22:00,
2013-04-07 14:27:00,45.5,45.0,29.75,SW,225,0.0,2.3,97,0.00,,,0.42,Rainwise IP-100,2013-04-07 21:27:00,
2013-04-07 14:32:00,45.6,45.0,29.75,SW,225,0.0,1.4,97,0.00,,,0.42,Rainwise IP-100,2013-04-07 21:32:00,
2013-04-07 14:37:00,45.6,45.0,29.75,SW,225,0.0,0.0,98,0.00,,,0.42,Rainwise IP-100,2013-04-07 21:37:00,
2013-04-07 14:42:00,45.8,45.0,29.75,SW,225,0.0,0.0,98,0.00,,,0.42,Rainwise IP-100,2013-04-07 21:42:00,
2013-04-07 14:47:00,46.0,45.0,29.75,SW,225,0.0,0.0,98,0.00,,,0.42,Rainwise IP-100,2013-04-07 21:47:00,
2013-04-07 14:52:00,46.1,45.0,29.75,SW,225,0.0,0.0,98,0.00,,,0.42,Rainwise IP-100,2013-04-07 21:52:00,
2013-04-07 14:57:00,46.2,45.0,29.75,SW,225,0.0,0.0,97,0.00,,,0.42,Rainwise IP-100,2013-04-07 21:57:00,
2013-04-07 15:02:00,46.3,45.0,29.75,SW,225,0.0,0.0,97,0.00,,,0.42,Rainwise IP-100,2013-04-07 22:02:00,
2013-04-07 15:07:00,46.4,45.0,29.75,SW,225,0.0,0.0,97,0.00,,,0.42,Rainwise IP-100,2013-04-07 22:07:00,
2013-04-07 15:12:00,46.4,45.0,29.75,SW,225,0.0,0.0,97,0.00,,,0.42,Rainwise IP-100,2013-04-07 22:12:00,
2013-04-07 15:17:00,46.4,45.0,29.76,SW,225,0.0,0.0,97,0.00,,,0.42,Rainwise IP-100,2013-04-07 22:17:00,
2013-04-07 15:22:00,46.5,46.0,29.76,SW,225,0.0,0.0,97,0.00,,,0.42,Rainwise IP-100,2013-04-07 22:22:00,
2013-04-07 15:27:00,46.6,46.0,29.76,SW,225,0.0,0.0,97,0.00,,,0.42,Rainwise IP-100,2013-04-07 22:27:00,
2013-04-07 15:32:00,46.5,46.0,29.76,SW,225,0.0,1.2,97,0.00,,,0.42,Rainwise IP-100,2013-04-07 22:32:00,
2013-04-07 15:37:00,46.4,45.0,29.76,SW,225,0.0,0.0,97,0.00,,,0.42,Rainwise IP-100,2013-04-07 22:37:00,
2013-04-07 15:42:00,46.4,45.0,29.76,SW,225,0.0,0.0,97,0.00,,,0.42,Rainwise IP-100,2013-04-07 22:42:00,
2013-04-07 15:47:00,46.4,45.0,29.76,SW,225,0.0,1.6,98,0.00,,,0.42,Rainwise IP-100,2013-04-07 22:47:00,
2013-04-07 15:52:00,46.4,45.0,29.76,SW,225,0.0,1.2,98,0.00,,,0.42,Rainwise IP-100,2013-04-07 22:52:00,
2013-04-07 15:57:00,46.3,45.0,29.77,SW,225,0.0,1.6,98,0.00,,,0.42,Rainwise IP-100,2013-04-07 22:57:00,
2013-04-07 16:02:00,46.1,45.0,29.77,SW,225,0.0,0.0,98,0.00,,,0.42,Rainwise IP-100,2013-04-07 23:02:00,
2013-04-07 16:07:00,46.0,45.0,29.76,SW,225,0.0,1.2,98,0.06,,,0.43,Rainwise IP-100,2013-04-07 23:07:00,
2013-04-07 16:12:00,46.0,45.0,29.77,SW,225,0.0,1.9,98,0.06,,,0.43,Rainwise IP-100,2013-04-07 23:12:00,
2013-04-07 16:17:00,46.1,45.0,29.77,SW,225,0.0,1.2,98,0.06,,,0.44,Rainwise IP-100,2013-04-07 23:17:00,
2013-04-07 16:22:00,46.2,45.0,29.77,SW,225,0.0,0.0,98,0.06,,,0.44,Rainwise IP-100,2013-04-07 23:22:00,
2013-04-07 16:27:00,46.3,45.0,29.77,SW,225,0.0,2.3,98,0.00,,,0.44,Rainwise IP-100,2013-04-07 23:27:00,
2013-04-07 16:32:00,46.4,45.0,29.77,SW,225,0.0,1.4,98,0.00,,,0.44,Rainwise IP-100,2013-04-07 23:32:00,
2013-04-07 16:37:00,46.4,45.0,29.77,SW,225,0.0,0.0,98,0.00,,,0.44,Rainwise IP-100,2013-04-07 23:37:00,
2013-04-07 16:42:00,46.4,45.0,29.78,SW,225,0.0,1.9,98,0.00,,,0.44,Rainwise IP-100,2013-04-07 23:42:00,
2013-04-07 16:47:00,46.3,45.0,29.77,SW,225,0.0,1.6,98,0.06,,,0.45,Rainwise IP-100,2013-04-07 23:47:00,
2013-04-07 16:52:00,46.3,45.0,29.77,SW,225,0.0,0.0,98,0.06,,,0.45,Rainwise IP-100,2013-04-07 23:52:00,
2013-04-07 16:57:00,46.3,45.0,29.77,SW,225,0.0,0.0,98,0.06,,,0.46,Rainwise IP-100,2013-04-07 23:57:00,
2013-04-07 17:02:00,46.3,45.0,29.77,SW,225,2.1,2.1,98,0.06,,,0.46,Rainwise IP-100,2013-04-08 00:02:00,
2013-04-07 17:07:00,46.2,45.0,29.77,SW,225,0.0,2.3,97,0.00,,,0.46,Rainwise IP-100,2013-04-08 00:07:00,
2013-04-07 17:12:00,46.2,45.0,29.77,SW,225,0.0,0.0,97,0.00,,,0.46,Rainwise IP-100,2013-04-08 00:12:00,
2013-04-07 17:17:00,46.2,45.0,29.77,SW,225,0.0,2.3,97,0.00,,,0.46,Rainwise IP-100,2013-04-08 00:17:00,
2013-04-07 17:22:00,46.1,45.0,29.78,SW,225,0.0,0.0,97,0.00,,,0.46,Rainwise IP-100,2013-04-08 00:22:00,
2013-04-07 17:27:00,45.9,45.0,29.77,SW,225,0.0,2.3,97,0.00,,,0.46,Rainwise IP-100,2013-04-08 00:27:00,
2013-04-07 17:32:00,45.7,45.0,29.78,SW,225,0.0,0.0,97,0.00,,,0.46,Rainwise IP-100,2013-04-08 00:32:00,
2013-04-07 17:37:00,45.5,45.0,29.78,SW,225,0.0,1.6,97,0.06,,,0.47,Rainwise IP-100,2013-04-08 00:37:00,
2013-04-07 17:42:00,45.5,45.0,29.78,SW,225,0.0,0.0,97,0.06,,,0.47,Rainwise IP-100,2013-04-08 00:42:00,
2013-04-07 17:47:00,45.4,44.0,29.78,SW,225,0.0,0.0,97,0.00,,,0.47,Rainwise IP-100,2013-04-08 00:47:00,
2013-04-07 17:52:00,45.4,44.0,29.78,SW,225,0.0,1.6,97,0.00,,,0.47,Rainwise IP-100,2013-04-08 00:52:00,
2013-04-07 17:57:00,45.3,44.0,29.78,SW,225,0.0,0.0,97,0.00,,,0.47,Rainwise IP-100,2013-04-08 00:57:00,
2013-04-07 18:02:00,45.2,44.0,29.79,SW,225,0.0,0.0,97,0.00,,,0.47,Rainwise IP-100,2013-04-08 01:02:00,
2013-04-07 18:07:00,45.2,44.0,29.78,SW,225,0.0,0.0,97,0.00,,,0.47,Rainwise IP-100,2013-04-08 01:07:00,
2013-04-07 18:12:00,45.2,44.0,29.79,SW,225,0.0,0.0,98,0.00,,,0.47,Rainwise IP-100,2013-04-08 01:12:00,
2013-04-07 18:17:00,45.2,44.0,29.78,SW,225,0.0,0.0,98,0.00,,,0.47,Rainwise IP-100,2013-04-08 01:17:00,
2013-04-07 18:22:00,45.2,44.0,29.79,SW,225,0.0,0.0,98,0.00,,,0.47,Rainwise IP-100,2013-04-08 01:22:00,
2013-04-07 18:27:00,45.3,44.0,29.79,SW,225,0.0,0.0,98,0.00,,,0.47,Rainwise IP-100,2013-04-08 01:27:00,
2013-04-07 18:32:00,45.4,44.0,29.79,SW,225,0.0,0.0,98,0.00,,,0.47,Rainwise IP-100,2013-04-08 01:32:00,
2013-04-07 18:37:00,45.5,45.0,29.79,SW,225,0.0,0.0,98,0.00,,,0.47,Rainwise IP-100,2013-04-08 01:37:00,
2013-04-07 18:42:00,45.4,44.0,29.79,SW,225,0.0,1.2,98,0.00,,,0.47,Rainwise IP-100,2013-04-08 01:42:00,
2013-04-07 18:47:00,45.3,44.0,29.79,SW,225,0.0,1.6,97,0.00,,,0.47,Rainwise IP-100,2013-04-08 01:47:00,
2013-04-07 18:52:00,45.2,44.0,29.79,SW,225,0.0,0.0,97,0.00,,,0.47,Rainwise IP-100,2013-04-08 01:52:00,
2013-04-07 18:57:00,45.1,44.0,29.79,SW,225,0.0,0.0,97,0.00,,,0.47,Rainwise IP-100,2013-04-08 01:57:00,
2013-04-07 19:02:00,45.0,44.0,29.79,SW,225,0.0,1.2,98,0.00,,,0.47,Rainwise IP-100,2013-04-08 02:02:00,
2013-04-07 19:07:00,44.9,44.0,29.79,SW,225,0.0,0.0,98,0.00,,,0.47,Rainwise IP-100,2013-04-08 02:07:00,
2013-04-07 19:12:00,44.9,44.0,29.80,SW,225,0.0,0.0,98,0.00,,,0.47,Rainwise IP-100,2013-04-08 02:12:00,
2013-04-07 19:17:00,44.8,44.0,29.79,SW,225,0.0,0.0,98,0.00,,,0.47,Rainwise IP-100,2013-04-08 02:17:00,
2013-04-07 19:22:00,44.7,44.0,29.80,SW,225,0.0,0.0,98,0.00,,,0.47,Rainwise IP-100,2013-04-08 02:22:00,
2013-04-07 19:27:00,44.6,44.0,29.80,SW,225,0.0,0.0,98,0.00,,,0.47,Rainwise IP-100,2013-04-08 02:27:00,
2013-04-07 19:32:00,44.6,44.0,29.80,SW,225,0.0,0.0,98,0.00,,,0.47,Rainwise IP-100,2013-04-08 02:32:00,
2013-04-07 19:37:00,44.6,45.0,29.80,SW,225,0.0,0.0,99,0.00,,,0.47,Rainwise IP-100,2013-04-08 02:37:00,
2013-04-07 19:42:00,44.6,45.0,29.81,SW,225,0.0,0.0,99,0.00,,,0.47,Rainwise IP-100,2013-04-08 02:42:00,
2013-04-07 19:47:00,44.6,45.0,29.81,SW,225,0.0,0.0,99,0.00,,,0.47,Rainwise IP-100,2013-04-08 02:47:00,
2013-04-07 19:52:00,44.6,45.0,29.82,SW,225,0.0,0.0,99,0.00,,,0.47,Rainwise IP-100,2013-04-08 02:52:00,
2013-04-07 19:58:00,44.5,45.0,29.81,SW,225,0.0,0.0,99,0.00,,,0.47,Rainwise IP-100,2013-04-08 02:58:00,
2013-04-07 20:03:00,44.5,45.0,29.81,SW,225,0.0,0.0,99,0.00,,,0.47,Rainwise IP-100,2013-04-08 03:03:00,
2013-04-07 20:08:00,44.4,44.0,29.81,SW,225,0.0,0.0,99,0.00,,,0.47,Rainwise IP-100,2013-04-08 03:08:00,
2013-04-07 20:13:00,44.3,44.0,29.82,SW,225,0.0,0.0,99,0.00,,,0.47,Rainwise IP-100,2013-04-08 03:13:00,
2013-04-07 20:18:00,44.2,44.0,29.82,SW,225,0.0,0.0,99,0.00,,,0.47,Rainwise IP-100,2013-04-08 03:18:00,
2013-04-07 20:23:00,44.1,44.0,29.82,SW,225,0.0,0.0,99,0.00,,,0.47,Rainwise IP-100,2013-04-08 03:23:00,
2013-04-07 20:28:00,44.0,44.0,29.82,SW,225,0.0,0.0,99,0.00,,,0.47,Rainwise IP-100,2013-04-08 03:28:00,
2013-04-07 20:33:00,43.9,44.0,29.83,SW,225,0.0,0.0,99,0.00,,,0.47,Rainwise IP-100,2013-04-08 03:33:00,
2013-04-07 20:38:00,43.8,44.0,29.82,SW,225,0.0,0.0,99,0.00,,,0.47,Rainwise IP-100,2013-04-08 03:38:00,
2013-04-07 20:43:00,43.7,44.0,29.83,SW,225,0.0,0.0,99,0.00,,,0.47,Rainwise IP-100,2013-04-08 03:43:00,
2013-04-07 20:48:00,43.7,44.0,29.83,SW,225,0.0,0.0,99,0.00,,,0.47,Rainwise IP-100,2013-04-08 03:48:00,
2013-04-07 20:53:00,43.6,44.0,29.83,SW,225,0.0,0.0,99,0.00,,,0.47,Rainwise IP-100,2013-04-08 03:53:00,
2013-04-07 20:58:00,43.6,44.0,29.83,SW,225,0.0,0.0,99,0.00,,,0.47,Rainwise IP-100,2013-04-08 03:58:00,
2013-04-07 21:00:00,43.6,44.0,29.83,SW,225,0.0,0.0,99,0.00,,,0.47,Rainwise IP-100,2013-04-08 04:00:00,
2013-04-07 21:01:00,43.6,44.0,29.83,SW,225,0.0,0.0,99,0.00,,,0.47,Rainwise IP-100,2013-04-08 04:01:00,
2013-04-07 21:06:00,43.5,44.0,29.83,SW,225,0.0,0.0,99,0.00,,,0.47,Rainwise IP-100,2013-04-08 04:06:00,
2013-04-07 21:07:00,43.5,44.0,29.83,SW,225,0.0,0.0,99,0.00,,,0.47,Rainwise IP-100,2013-04-08 04:07:00,
2013-04-07 21:09:00,43.5,44.0,29.83,SW,225,0.0,0.0,99,0.00,,,0.47,Rainwise IP-100,2013-04-08 04:09:00,
2013-04-07 21:14:00,43.6,44.0,29.83,SW,225,0.0,0.0,99,0.00,,,0.47,Rainwise IP-100,2013-04-08 04:14:00,
2013-04-07 21:19:00,43.6,44.0,29.84,SW,225,0.0,0.0,100,0.00,,,0.47,Rainwise IP-100,2013-04-08 04:19:00,
2013-04-07 21:24:00,43.6,44.0,29.84,SW,225,0.0,0.0,100,0.00,,,0.47,Rainwise IP-100,2013-04-08 04:24:00,
2013-04-07 21:29:00,43.6,44.0,29.84,SW,225,0.0,0.0,100,0.00,,,0.47,Rainwise IP-100,2013-04-08 04:29:00,
2013-04-07 21:34:00,43.5,44.0,29.84,SW,225,0.0,0.0,100,0.00,,,0.47,Rainwise IP-100,2013-04-08 04:34:00,
2013-04-07 21:39:00,43.5,44.0,29.84,SW,225,0.0,0.0,100,0.00,,,0.47,Rainwise IP-100,2013-04-08 04:39:00,
2013-04-07 21:44:00,43.5,44.0,29.84,SW,225,0.0,0.0,100,0.00,,,0.47,Rainwise IP-100,2013-04-08 04:44:00,
2013-04-07 21:49:00,43.5,44.0,29.84,SW,225,0.0,0.0,100,0.00,,,0.47,Rainwise IP-100,2013-04-08 04:49:00,
2013-04-07 21:54:00,43.5,44.0,29.84,SW,225,0.0,0.0,99,0.00,,,0.47,Rainwise IP-100,2013-04-08 04:54:00,
2013-04-07 21:59:00,43.4,43.0,29.85,SW,225,0.0,0.0,99,0.00,,,0.47,Rainwise IP-100,2013-04-08 04:59:00,
2013-04-07 22:04:00,43.3,43.0,29.85,SW,225,0.0,0.0,99,0.00,,,0.47,Rainwise IP-100,2013-04-08 05:04:00,
2013-04-07 22:09:00,43.3,43.0,29.85,SW,225,0.0,0.0,99,0.00,,,0.47,Rainwise IP-100,2013-04-08 05:09:00,
2013-04-07 22:14:00,43.2,43.0,29.85,SW,225,0.0,0.0,99,0.00,,,0.47,Rainwise IP-100,2013-04-08 05:14:00,
2013-04-07 22:19:00,43.1,43.0,29.86,SW,225,0.0,1.6,99,0.00,,,0.47,Rainwise IP-100,2013-04-08 05:19:00,
2013-04-07 22:24:00,43.1,43.0,29.86,SW,225,0.0,0.0,99,0.00,,,0.47,Rainwise IP-100,2013-04-08 05:24:00,
2013-04-07 22:29:00,43.1,43.0,29.86,SW,225,0.0,0.0,99,0.00,,,0.47,Rainwise IP-100,2013-04-08 05:29:00,
2013-04-07 22:34:00,43.1,43.0,29.86,SW,225,0.0,0.0,99,0.00,,,0.47,Rainwise IP-100,2013-04-08 05:34:00,
2013-04-07 22:39:00,43.1,43.0,29.86,SW,225,0.0,0.0,99,0.00,,,0.47,Rainwise IP-100,2013-04-08 05:39:00,
2013-04-07 22:44:00,43.1,43.0,29.86,SW,225,0.0,0.0,99,0.00,,,0.47,Rainwise IP-100,2013-04-08 05:44:00,
2013-04-07 22:49:00,43.1,43.0,29.87,SW,225,0.0,0.0,99,0.00,,,0.47,Rainwise IP-100,2013-04-08 05:49:00,
2013-04-07 22:54:00,43.0,43.0,29.87,SW,225,0.0,0.0,99,0.00,,,0.47,Rainwise IP-100,2013-04-08 05:54:00,
2013-04-07 22:59:00,43.0,43.0,29.87,SW,225,0.0,0.0,99,0.00,,,0.47,Rainwise IP-100,2013-04-08 05:59:00,
2013-04-07 23:04:00,43.0,42.0,29.87,SW,225,0.0,0.0,98,0.00,,,0.47,Rainwise IP-100,2013-04-08 06:04:00,
2013-04-07 23:09:00,42.9,42.0,29.87,SW,225,0.0,0.0,98,0.00,,,0.47,Rainwise IP-100,2013-04-08 06:09:00,
2013-04-07 23:14:00,42.9,42.0,29.87,SW,225,0.0,0.0,98,0.00,,,0.47,Rainwise IP-100,2013-04-08 06:14:00,
2013-04-07 23:19:00,42.9,42.0,29.88,SW,225,0.0,0.0,98,0.00,,,0.47,Rainwise IP-100,2013-04-08 06:19:00,
2013-04-07 23:24:00,42.9,43.0,29.88,SW,225,0.0,0.0,99,0.00,,,0.47,Rainwise IP-100,2013-04-08 06:24:00,
2013-04-07 23:29:00,42.8,42.0,29.88,SW,225,0.0,0.0,98,0.00,,,0.47,Rainwise IP-100,2013-04-08 06:29:00,
2013-04-07 23:34:00,42.8,42.0,29.88,SW,225,0.0,0.0,98,0.00,,,0.47,Rainwise IP-100,2013-04-08 06:34:00,
2013-04-07 23:39:00,42.8,43.0,29.88,SW,225,0.0,0.0,99,0.00,,,0.47,Rainwise IP-100,2013-04-08 06:39:00,
2013-04-07 23:44:00,42.8,42.0,29.88,SW,225,0.0,0.0,98,0.00,,,0.47,Rainwise IP-100,2013-04-08 06:44:00,
2013-04-07 23:49:00,42.8,42.0,29.88,SW,225,0.0,0.0,98,0.00,,,0.47,Rainwise IP-100,2013-04-08 06:49:00,
2013-04-07 23:54:00,42.8,42.0,29.88,SW,225,0.0,0.0,98,0.00,,,0.47,Rainwise IP-100,2013-04-08 06:54:00,
2013-04-07 23:59:00,42.8,42.0,29.89,SW,225,0.0,0.0,98,0.00,,,0.47,Rainwise IP-100,2013-04-08 06:59:00,